Time,TemperatureF,DewpointF,PressureIn,WindDirection,WindDirectionDegrees,WindSpeedMPH,WindSpeedGustMPH,Humidity,HourlyPrecipIn,Conditions,Clouds,dailyrainin,SoftwareType,DateUTC
2013-09-14 00:02:00,57.7,49.1,29.85,NNW,335,0.0,0.0,73,0.00,,---,0.00,VWS V14.00,2013-09-14 04:02:00,
2013-09-14 00:03:00,57.7,49.1,29.85,NNW,335,0.0,0.0,73,0.00,,---,0.00,VWS V14.00,2013-09-14 04:03:00,
2013-09-14 00:08:00,57.5,49.3,29.85,NNW,335,0.0,0.0,74,0.00,,---,0.00,VWS V14.00,2013-09-14 04:08:00,
2013-09-14 00:13:00,57.3,49.1,29.85,NNW,335,0.0,0.0,74,0.00,,---,0.00,VWS V14.00,2013-09-14 04:13:00,
2013-09-14 00:18:00,57.2,49.0,29.85,NNW,335,0.0,0.0,74,0.00,,---,0.00,VWS V14.00,2013-09-14 04:18:00,
2013-09-14 00:23:00,57.1,48.9,29.85,NNW,335,0.0,0.0,74,0.00,,---,0.00,VWS V14.00,2013-09-14 04:23:00,
2013-09-14 00:28:00,56.9,48.7,29.86,NNW,335,0.0,0.0,74,0.00,,---,0.00,VWS V14.00,2013-09-14 04:28:00,
2013-09-14 00:33:00,56.8,49.0,29.86,NNW,335,0.0,0.0,75,0.00,,---,0.00,VWS V14.00,2013-09-14 04:33:00,
2013-09-14 00:38:00,56.6,48.8,29.86,NNW,335,0.0,0.0,75,0.00,,---,0.00,VWS V14.00,2013-09-14 04:38:00,
2013-09-14 00:43:00,56.6,48.8,29.86,NNW,335,0.0,0.0,75,0.00,,---,0.00,VWS V14.00,2013-09-14 04:43:00,
2013-09-14 00:48:00,56.5,48.7,29.86,NNW,335,0.0,0.0,75,0.00,,---,0.00,VWS V14.00,2013-09-14 04:48:00,
2013-09-14 00:53:00,56.4,48.6,29.86,NNW,335,0.0,0.0,75,0.00,,---,0.00,VWS V14.00,2013-09-14 04:53:00,
2013-09-14 00:58:00,56.3,48.5,29.86,NNW,335,0.0,0.0,75,0.00,,---,0.00,VWS V14.00,2013-09-14 04:58:00,
2013-09-14 01:03:00,56.2,48.4,29.86,NNW,335,0.0,0.0,75,0.00,,---,0.00,VWS V14.00,2013-09-14 05:03:00,
2013-09-14 01:08:00,56.2,48.4,29.86,NNW,335,0.0,0.0,75,0.00,,---,0.00,VWS V14.00,2013-09-14 05:08:00,
2013-09-14 01:13:00,56.0,48.2,29.86,NNW,335,0.0,0.0,75,0.00,,---,0.00,VWS V14.00,2013-09-14 05:13:00,
2013-09-14 01:18:00,55.9,48.5,29.86,NNW,335,0.0,0.0,76,0.00,,---,0.00,VWS V14.00,2013-09-14 05:18:00,
2013-09-14 01:23:00,55.8,48.4,29.86,NNW,335,0.0,0.0,76,0.00,,---,0.00,VWS V14.00,2013-09-14 05:23:00,
2013-09-14 01:28:00,55.7,48.3,29.87,NNW,335,0.0,0.0,76,0.00,,---,0.00,VWS V14.00,2013-09-14 05:28:00,
2013-09-14 01:33:00,55.7,48.3,29.87,NNW,335,0.0,0.0,76,0.00,,---,0.00,VWS V14.00,2013-09-14 05:33:00,
2013-09-14 01:38:00,55.6,48.2,29.86,NNW,335,0.0,0.0,76,0.00,,---,0.00,VWS V14.00,2013-09-14 05:38:00,
2013-09-14 01:43:00,55.5,48.1,29.87,NNW,335,0.0,0.0,76,0.00,,---,0.00,VWS V14.00,2013-09-14 05:43:00,
2013-09-14 01:48:00,55.4,48.3,29.87,NNW,335,0.0,0.0,77,0.00,,---,0.00,VWS V14.00,2013-09-14 05:48:00,
2013-09-14 01:53:00,55.3,48.2,29.87,NNW,335,0.0,0.0,77,0.00,,---,0.00,VWS V14.00,2013-09-14 05:53:00,
2013-09-14 01:58:00,55.1,48.0,29.87,NNW,335,0.0,0.0,77,0.00,,---,0.00,VWS V14.00,2013-09-14 05:58:00,
2013-09-14 02:04:00,55.0,47.9,29.88,NNW,335,0.0,0.0,77,0.00,,---,0.00,VWS V14.00,2013-09-14 06:04:00,
2013-09-14 02:09:00,55.0,47.9,29.87,NNW,335,0.0,0.0,77,0.00,,---,0.00,VWS V14.00,2013-09-14 06:09:00,
2013-09-14 02:14:00,54.9,48.2,29.87,NNW,335,0.0,0.0,78,0.00,,---,0.00,VWS V14.00,2013-09-14 06:14:00,
2013-09-14 02:19:00,54.8,48.1,29.87,NNW,335,0.0,0.0,78,0.00,,---,0.00,VWS V14.00,2013-09-14 06:19:00,
2013-09-14 02:24:00,54.8,48.1,29.87,NNW,335,0.0,0.0,78,0.00,,---,0.00,VWS V14.00,2013-09-14 06:24:00,
2013-09-14 02:29:00,54.7,48.0,29.87,NNW,335,0.0,0.0,78,0.00,,---,0.00,VWS V14.00,2013-09-14 06:29:00,
2013-09-14 02:34:00,54.6,47.9,29.87,NNW,335,0.0,0.0,78,0.00,,---,0.00,VWS V14.00,2013-09-14 06:34:00,
2013-09-14 02:39:00,54.5,47.8,29.88,NNW,335,0.0,0.0,78,0.00,,---,0.00,VWS V14.00,2013-09-14 06:39:00,
2013-09-14 02:44:00,54.4,47.7,29.88,NNW,335,0.0,0.0,78,0.00,,---,0.00,VWS V14.00,2013-09-14 06:44:00,
2013-09-14 02:49:00,54.3,47.6,29.88,NNW,335,0.0,0.0,78,0.00,,---,0.00,VWS V14.00,2013-09-14 06:49:00,
2013-09-14 02:54:00,54.1,47.7,29.88,NNW,335,0.0,0.0,79,0.00,,---,0.00,VWS V14.00,2013-09-14 06:54:00,
2013-09-14 02:59:00,53.9,47.9,29.89,NNW,335,0.0,0.0,80,0.00,,---,0.00,VWS V14.00,2013-09-14 06:59:00,
2013-09-14 03:04:00,53.8,47.8,29.89,NNW,335,0.0,0.0,80,0.00,,---,0.00,VWS V14.00,2013-09-14 07:04:00,
2013-09-14 03:09:00,53.6,47.6,29.89,NNW,335,0.0,0.0,80,0.00,,---,0.00,VWS V14.00,2013-09-14 07:09:00,
2013-09-14 03:14:00,53.6,47.6,29.89,NNW,335,0.0,0.0,80,0.00,,---,0.00,VWS V14.00,2013-09-14 07:14:00,
2013-09-14 03:19:00,53.6,47.6,29.89,NNW,335,0.0,0.0,80,0.00,,---,0.00,VWS V14.00,2013-09-14 07:19:00,
2013-09-14 03:24:00,53.5,47.5,29.89,NNW,335,0.0,0.0,80,0.00,,---,0.00,VWS V14.00,2013-09-14 07:24:00,
2013-09-14 03:29:00,53.3,47.6,29.89,NNW,335,0.0,0.0,81,0.00,,---,0.00,VWS V14.00,2013-09-14 07:29:00,
2013-09-14 03:34:00,53.1,47.4,29.89,NNW,335,0.0,0.0,81,0.00,,---,0.00,VWS V14.00,2013-09-14 07:34:00,
2013-09-14 03:39:00,52.9,47.2,29.89,NNW,335,0.0,0.0,81,0.00,,---,0.00,VWS V14.00,2013-09-14 07:39:00,
2013-09-14 03:44:00,52.8,47.1,29.89,NNW,335,0.0,0.0,81,0.00,,---,0.00,VWS V14.00,2013-09-14 07:44:00,
2013-09-14 03:49:00,52.9,47.2,29.89,NNW,335,0.0,0.0,81,0.00,,---,0.00,VWS V14.00,2013-09-14 07:49:00,
2013-09-14 03:54:00,53.0,47.0,29.89,NNW,335,0.0,0.0,80,0.00,,---,0.00,VWS V14.00,2013-09-14 07:54:00,
2013-09-14 03:59:00,53.1,47.1,29.89,NNW,335,0.0,0.0,80,0.00,,---,0.00,VWS V14.00,2013-09-14 07:59:00,
2013-09-14 04:04:00,53.1,47.1,29.89,NNW,335,0.0,0.0,80,0.00,,---,0.00,VWS V14.00,2013-09-14 08:04:00,
2013-09-14 04:09:00,53.0,47.0,29.89,NNW,335,0.0,0.0,80,0.00,,---,0.00,VWS V14.00,2013-09-14 08:09:00,
2013-09-14 04:14:00,53.0,46.7,29.90,NNW,335,0.0,0.0,79,0.00,,---,0.00,VWS V14.00,2013-09-14 08:14:00,
2013-09-14 04:20:00,53.0,47.0,29.90,NNW,335,0.0,0.0,80,0.00,,---,0.00,VWS V14.00,2013-09-14 08:20:00,
2013-09-14 04:25:00,53.0,47.0,29.90,NNW,335,0.0,0.0,80,0.00,,---,0.00,VWS V14.00,2013-09-14 08:25:00,
2013-09-14 04:30:00,53.1,46.8,29.90,NNW,335,0.0,0.0,79,0.00,,---,0.00,VWS V14.00,2013-09-14 08:30:00,
2013-09-14 04:35:00,53.1,46.8,29.90,NNW,335,0.0,0.0,79,0.00,,---,0.00,VWS V14.00,2013-09-14 08:35:00,
2013-09-14 04:40:00,53.1,46.8,29.90,NNW,335,0.0,0.0,79,0.00,,---,0.00,VWS V14.00,2013-09-14 08:40:00,
2013-09-14 04:45:00,53.1,46.4,29.90,NNW,335,0.0,0.0,78,0.00,,---,0.00,VWS V14.00,2013-09-14 08:45:00,
2013-09-14 04:50:00,53.1,46.4,29.90,NNW,335,0.0,0.0,78,0.00,,---,0.00,VWS V14.00,2013-09-14 08:50:00,
2013-09-14 04:55:00,53.2,46.5,29.90,NNW,335,0.0,0.0,78,0.00,,---,0.00,VWS V14.00,2013-09-14 08:55:00,
2013-09-14 05:00:00,53.1,46.4,29.90,NNW,335,0.0,0.0,78,0.00,,---,0.00,VWS V14.00,2013-09-14 09:00:00,
2013-09-14 05:05:00,53.1,46.4,29.90,NNW,335,0.0,0.0,78,0.00,,---,0.00,VWS V14.00,2013-09-14 09:05:00,
2013-09-14 05:10:00,53.1,46.1,29.90,NNW,335,0.0,0.0,77,0.00,,---,0.00,VWS V14.00,2013-09-14 09:10:00,
2013-09-14 05:15:00,53.1,46.1,29.91,NNW,335,0.0,0.0,77,0.00,,---,0.00,VWS V14.00,2013-09-14 09:15:00,
2013-09-14 05:20:00,53.0,46.0,29.91,NNW,335,0.0,0.0,77,0.00,,---,0.00,VWS V14.00,2013-09-14 09:20:00,
2013-09-14 05:25:00,52.9,45.9,29.91,NNW,335,0.0,0.0,77,0.00,,---,0.00,VWS V14.00,2013-09-14 09:25:00,
2013-09-14 05:30:00,52.9,45.9,29.92,NNW,335,0.0,0.0,77,0.00,,---,0.00,VWS V14.00,2013-09-14 09:30:00,
2013-09-14 05:35:00,52.8,45.8,29.92,NNW,335,0.0,0.0,77,0.00,,---,0.00,VWS V14.00,2013-09-14 09:35:00,
2013-09-14 05:40:00,52.7,46.0,29.92,NNW,335,0.0,0.0,78,0.00,,---,0.00,VWS V14.00,2013-09-14 09:40:00,
2013-09-14 05:45:00,52.6,45.6,29.92,NNW,335,0.0,0.0,77,0.00,,---,0.00,VWS V14.00,2013-09-14 09:45:00,
2013-09-14 05:50:00,52.6,45.6,29.92,NNW,335,0.0,0.0,77,0.00,,---,0.00,VWS V14.00,2013-09-14 09:50:00,
2013-09-14 05:55:00,52.5,45.5,29.92,NNW,335,0.0,0.0,77,0.00,,---,0.00,VWS V14.00,2013-09-14 09:55:00,
2013-09-14 06:00:00,52.4,45.4,29.92,NNW,335,0.0,0.0,77,0.00,,---,0.00,VWS V14.00,2013-09-14 10:00:00,
2013-09-14 06:05:00,52.4,45.4,29.92,NNW,335,0.0,0.0,77,0.00,,---,0.00,VWS V14.00,2013-09-14 10:05:00,
2013-09-14 06:10:00,52.4,45.4,29.93,NNW,335,0.0,0.0,77,0.00,,---,0.00,VWS V14.00,2013-09-14 10:10:00,
2013-09-14 06:15:00,52.3,45.3,29.93,NNW,335,0.0,0.0,77,0.00,,---,0.00,VWS V14.00,2013-09-14 10:15:00,
2013-09-14 06:20:00,52.3,45.3,29.93,NNW,335,0.0,0.0,77,0.00,,---,0.00,VWS V14.00,2013-09-14 10:20:00,
2013-09-14 06:26:00,52.3,45.3,29.93,NNW,335,0.0,0.0,77,0.00,,---,0.00,VWS V14.00,2013-09-14 10:26:00,
2013-09-14 06:31:00,52.1,45.1,29.93,NNW,335,0.0,0.0,77,0.00,,---,0.00,VWS V14.00,2013-09-14 10:31:00,
2013-09-14 06:36:00,52.0,45.4,29.93,NNW,335,0.0,0.0,78,0.00,,---,0.00,VWS V14.00,2013-09-14 10:36:00,
2013-09-14 06:41:00,52.1,45.1,29.94,NNW,335,0.0,0.0,77,0.00,,---,0.00,VWS V14.00,2013-09-14 10:41:00,
2013-09-14 06:46:00,52.1,45.5,29.94,NNW,329,0.0,0.0,78,0.00,,---,0.00,VWS V14.00,2013-09-14 10:46:00,
2013-09-14 06:51:00,52.1,45.5,29.94,NNW,329,0.0,0.0,78,0.00,,---,0.00,VWS V14.00,2013-09-14 10:51:00,
2013-09-14 06:56:00,52.0,45.4,29.94,NNW,329,0.0,0.0,78,0.00,,---,0.00,VWS V14.00,2013-09-14 10:56:00,
2013-09-14 07:01:00,51.8,45.5,29.95,NNW,329,0.0,0.0,79,0.00,,---,0.00,VWS V14.00,2013-09-14 11:01:00,
2013-09-14 07:06:00,51.9,45.6,29.95,NNW,329,0.0,0.0,79,0.00,,---,0.00,VWS V14.00,2013-09-14 11:06:00,
2013-09-14 07:11:00,51.9,45.6,29.95,NNW,329,0.0,0.0,79,0.00,,---,0.00,VWS V14.00,2013-09-14 11:11:00,
2013-09-14 07:16:00,52.1,45.8,29.95,NNW,329,0.0,0.0,79,0.00,,---,0.00,VWS V14.00,2013-09-14 11:16:00,
2013-09-14 07:21:00,52.3,46.0,29.95,NNW,329,0.0,0.0,79,0.00,,---,0.00,VWS V14.00,2013-09-14 11:21:00,
2013-09-14 07:26:00,52.5,45.8,29.95,NNW,329,0.0,2.0,78,0.00,,---,0.00,VWS V14.00,2013-09-14 11:26:00,
2013-09-14 07:31:00,52.7,46.0,29.95,NNW,329,0.0,0.0,78,0.00,,---,0.00,VWS V14.00,2013-09-14 11:31:00,
2013-09-14 07:36:00,52.8,46.1,29.95,NNW,329,0.0,4.0,78,0.00,,---,0.00,VWS V14.00,2013-09-14 11:36:00,
2013-09-14 07:41:00,53.1,46.1,29.95,NNW,329,0.0,4.0,77,0.00,,---,0.00,VWS V14.00,2013-09-14 11:41:00,
2013-09-14 07:46:00,53.3,45.9,29.95,NNW,329,0.0,4.0,76,0.00,,---,0.00,VWS V14.00,2013-09-14 11:46:00,
2013-09-14 07:51:00,53.5,46.1,29.95,NW,319,5.0,5.0,76,0.00,,---,0.00,VWS V14.00,2013-09-14 11:51:00,
2013-09-14 07:56:00,53.9,46.2,29.95,NW,319,1.0,5.0,75,0.00,,---,0.00,VWS V14.00,2013-09-14 11:56:00,
2013-09-14 08:01:00,54.2,46.1,29.95,NW,319,0.0,4.0,74,0.00,,---,0.00,VWS V14.00,2013-09-14 12:01:00,
2013-09-14 08:06:00,54.4,45.9,29.96,NW,321,0.0,4.0,73,0.00,,---,0.00,VWS V14.00,2013-09-14 12:06:00,
2013-09-14 08:11:00,54.7,45.9,29.96,NW,321,1.0,4.0,72,0.00,,---,0.00,VWS V14.00,2013-09-14 12:11:00,
2013-09-14 08:16:00,55.0,45.8,29.96,NW,313,1.0,4.0,71,0.00,,---,0.00,VWS V14.00,2013-09-14 12:16:00,
2013-09-14 08:21:00,55.2,46.0,29.96,NW,313,2.0,4.0,71,0.00,,---,0.00,VWS V14.00,2013-09-14 12:21:00,
2013-09-14 08:26:00,55.4,45.8,29.96,NW,317,0.0,5.0,70,0.00,,---,0.00,VWS V14.00,2013-09-14 12:26:00,
2013-09-14 08:31:00,55.6,46.7,29.96,NW,319,0.0,4.0,72,0.00,,---,0.00,VWS V14.00,2013-09-14 12:31:00,
2013-09-14 08:37:00,55.8,46.5,29.96,NW,319,0.0,4.0,71,0.00,,---,0.00,VWS V14.00,2013-09-14 12:37:00,
2013-09-14 08:42:00,56.0,46.0,29.96,NW,319,4.0,6.0,69,0.00,,---,0.00,VWS V14.00,2013-09-14 12:42:00,
2013-09-14 08:47:00,56.1,46.1,29.96,NW,319,0.0,6.0,69,0.00,,---,0.00,VWS V14.00,2013-09-14 12:47:00,
2013-09-14 08:52:00,56.4,46.8,29.96,NW,325,4.0,6.0,70,0.00,,---,0.00,VWS V14.00,2013-09-14 12:52:00,
2013-09-14 08:57:00,56.6,46.6,29.96,NNW,348,2.0,6.0,69,0.00,,---,0.00,VWS V14.00,2013-09-14 12:57:00,
2013-09-14 09:02:00,56.8,46.4,29.97,North,355,2.0,6.0,68,0.00,,---,0.00,VWS V14.00,2013-09-14 13:02:00,
2013-09-14 09:07:00,56.9,46.5,29.97,North,355,5.0,6.0,68,0.00,,---,0.00,VWS V14.00,2013-09-14 13:07:00,
2013-09-14 09:12:00,57.2,47.1,29.97,North,355,4.0,6.0,69,0.00,,---,0.00,VWS V14.00,2013-09-14 13:12:00,
2013-09-14 09:17:00,57.4,47.3,29.97,North,355,0.0,6.0,69,0.00,,---,0.00,VWS V14.00,2013-09-14 13:17:00,
2013-09-14 09:22:00,57.8,47.3,29.97,North,355,0.0,6.0,68,0.00,,---,0.00,VWS V14.00,2013-09-14 13:22:00,
2013-09-14 09:27:00,58.1,47.2,29.97,North,355,0.0,6.0,67,0.00,,---,0.00,VWS V14.00,2013-09-14 13:27:00,
2013-09-14 09:32:00,58.4,47.5,29.97,NNE,19,0.0,4.0,67,0.00,,---,0.00,VWS V14.00,2013-09-14 13:32:00,
2013-09-14 09:37:00,58.6,47.7,29.97,NNE,17,4.0,4.0,67,0.00,,---,0.00,VWS V14.00,2013-09-14 13:37:00,
2013-09-14 09:42:00,58.7,47.4,29.98,North,5,0.0,4.0,66,0.00,,---,0.00,VWS V14.00,2013-09-14 13:42:00,
2013-09-14 09:47:00,59.0,48.5,29.97,NNE,24,0.0,4.0,68,0.00,,---,0.00,VWS V14.00,2013-09-14 13:47:00,
2013-09-14 09:52:00,59.3,48.0,29.97,North,355,0.0,6.0,66,0.00,,---,0.00,VWS V14.00,2013-09-14 13:52:00,
2013-09-14 09:57:00,59.5,48.2,29.97,East,98,4.0,6.0,66,0.00,,---,0.00,VWS V14.00,2013-09-14 13:57:00,
2013-09-14 10:02:00,59.6,47.8,29.98,NNW,348,0.0,4.0,65,0.00,,---,0.00,VWS V14.00,2013-09-14 14:02:00,
2013-09-14 10:07:00,59.7,47.9,29.98,NNE,32,1.0,4.0,65,0.00,,---,0.00,VWS V14.00,2013-09-14 14:07:00,
2013-09-14 10:12:00,60.0,48.6,29.98,NE,34,0.0,4.0,66,0.00,,---,0.00,VWS V14.00,2013-09-14 14:12:00,
2013-09-14 10:17:00,60.2,48.0,29.98,NNW,344,0.0,5.0,64,0.00,,---,0.00,VWS V14.00,2013-09-14 14:17:00,
2013-09-14 10:22:00,60.3,48.5,29.98,NNW,344,0.0,5.0,65,0.00,,---,0.00,VWS V14.00,2013-09-14 14:22:00,
2013-09-14 10:27:00,60.7,48.9,29.98,NE,34,2.0,6.0,65,0.00,,---,0.00,VWS V14.00,2013-09-14 14:27:00,
2013-09-14 10:32:00,60.7,48.0,29.98,North,360,0.0,3.0,63,0.00,,---,0.00,VWS V14.00,2013-09-14 14:32:00,
2013-09-14 10:37:00,60.6,48.0,29.98,NNW,334,4.0,5.0,63,0.00,,---,0.00,VWS V14.00,2013-09-14 14:37:00,
2013-09-14 10:42:00,60.5,47.4,29.98,NNW,334,0.0,5.0,62,0.00,,---,0.00,VWS V14.00,2013-09-14 14:42:00,
2013-09-14 10:47:00,60.9,49.1,29.98,NNW,335,0.0,5.0,65,0.00,,---,0.00,VWS V14.00,2013-09-14 14:47:00,
2013-09-14 10:53:00,61.4,49.1,29.98,North,360,3.0,7.0,64,0.00,,---,0.00,VWS V14.00,2013-09-14 14:53:00,
2013-09-14 10:58:00,61.4,48.7,29.98,North,360,3.0,7.0,63,0.00,,---,0.00,VWS V14.00,2013-09-14 14:58:00,
2013-09-14 11:03:00,61.2,48.1,29.98,North,360,0.0,2.0,62,0.00,,---,0.00,VWS V14.00,2013-09-14 15:03:00,
2013-09-14 11:08:00,61.0,49.2,29.98,North,360,0.0,2.0,65,0.00,,---,0.00,VWS V14.00,2013-09-14 15:08:00,
2013-09-14 11:13:00,61.1,49.3,29.98,ENE,67,7.0,7.0,65,0.00,,---,0.00,VWS V14.00,2013-09-14 15:13:00,
2013-09-14 11:18:00,61.3,49.0,29.98,ENE,64,0.0,7.0,64,0.00,,---,0.00,VWS V14.00,2013-09-14 15:18:00,
2013-09-14 11:23:00,61.6,48.9,29.98,NNE,26,0.0,7.0,63,0.00,,---,0.00,VWS V14.00,2013-09-14 15:23:00,
2013-09-14 11:28:00,61.7,49.4,29.98,NNE,24,0.0,7.0,64,0.00,,---,0.00,VWS V14.00,2013-09-14 15:28:00,
2013-09-14 11:33:00,62.0,48.8,29.98,NNE,23,0.0,3.0,62,0.00,,---,0.00,VWS V14.00,2013-09-14 15:33:00,
2013-09-14 11:38:00,62.2,49.5,29.98,NNE,23,3.0,3.0,63,0.00,,---,0.00,VWS V14.00,2013-09-14 15:38:00,
2013-09-14 11:43:00,62.1,48.5,29.98,NNW,348,0.0,5.0,61,0.00,,---,0.00,VWS V14.00,2013-09-14 15:43:00,
2013-09-14 11:48:00,62.2,49.5,29.98,NNW,348,0.0,5.0,63,0.00,,---,0.00,VWS V14.00,2013-09-14 15:48:00,
2013-09-14 11:53:00,62.5,49.8,29.98,NNW,347,2.0,5.0,63,0.00,,---,0.00,VWS V14.00,2013-09-14 15:53:00,
2013-09-14 11:58:00,62.6,49.8,29.98,NNW,347,0.0,5.0,63,0.00,,---,0.00,VWS V14.00,2013-09-14 15:58:00,
2013-09-14 12:03:00,62.9,49.3,29.98,NNW,347,0.0,4.0,61,0.00,,---,0.00,VWS V14.00,2013-09-14 16:03:00,
2013-09-14 12:08:00,63.0,48.9,29.98,North,350,1.0,4.0,60,0.00,,---,0.00,VWS V14.00,2013-09-14 16:08:00,
2013-09-14 12:13:00,62.9,49.3,29.98,North,350,2.0,4.0,61,0.00,,---,0.00,VWS V14.00,2013-09-14 16:13:00,
2013-09-14 12:18:00,63.0,49.4,29.98,NNW,337,1.0,6.0,61,0.00,,---,0.00,VWS V14.00,2013-09-14 16:18:00,
2013-09-14 12:23:00,63.2,49.1,29.98,NNW,338,0.0,6.0,60,0.00,,---,0.00,VWS V14.00,2013-09-14 16:23:00,
2013-09-14 12:28:00,63.4,48.8,29.98,NNW,338,0.0,0.0,59,0.00,,---,0.00,VWS V14.00,2013-09-14 16:28:00,
2013-09-14 12:33:00,63.1,49.0,29.98,NNW,338,0.0,7.0,60,0.00,,---,0.00,VWS V14.00,2013-09-14 16:33:00,
2013-09-14 12:38:00,63.0,49.8,29.98,NNW,338,4.0,7.0,62,0.00,,---,0.00,VWS V14.00,2013-09-14 16:38:00,
2013-09-14 12:43:00,62.9,49.3,29.98,NNW,348,0.0,7.0,61,0.00,,---,0.00,VWS V14.00,2013-09-14 16:43:00,
2013-09-14 12:48:00,62.7,48.2,29.98,NNW,344,0.0,7.0,59,0.00,,---,0.00,VWS V14.00,2013-09-14 16:48:00,
2013-09-14 12:53:00,62.7,49.1,29.99,NNW,344,1.0,7.0,61,0.00,,---,0.00,VWS V14.00,2013-09-14 16:53:00,
2013-09-14 12:59:00,62.7,48.6,29.99,NNW,336,0.0,0.0,60,0.00,,---,0.00,VWS V14.00,2013-09-14 16:59:00,
2013-09-14 13:04:00,62.7,48.6,29.99,NNW,328,0.0,1.0,60,0.00,,---,0.00,VWS V14.00,2013-09-14 17:04:00,
2013-09-14 13:09:00,62.7,48.6,29.99,NNW,336,0.0,4.0,60,0.00,,---,0.00,VWS V14.00,2013-09-14 17:09:00,
2013-09-14 13:14:00,62.7,49.1,29.99,NNW,336,1.0,5.0,61,0.00,,---,0.00,VWS V14.00,2013-09-14 17:14:00,
2013-09-14 13:19:00,62.8,49.2,29.99,NNW,336,1.0,5.0,61,0.00,,---,0.00,VWS V14.00,2013-09-14 17:19:00,
2013-09-14 13:24:00,62.9,49.3,29.99,NNW,336,0.0,5.0,61,0.00,,---,0.00,VWS V14.00,2013-09-14 17:24:00,
2013-09-14 13:29:00,63.0,49.4,29.99,NNW,336,0.0,0.0,61,0.00,,---,0.00,VWS V14.00,2013-09-14 17:29:00,
2013-09-14 13:34:00,63.4,50.2,29.99,NNW,336,0.0,0.0,62,0.00,,---,0.00,VWS V14.00,2013-09-14 17:34:00,
2013-09-14 13:39:00,63.6,49.0,29.99,NNW,342,5.0,6.0,59,0.00,,---,0.00,VWS V14.00,2013-09-14 17:39:00,
2013-09-14 13:44:00,63.5,48.9,29.98,NNW,342,0.0,6.0,59,0.00,,---,0.00,VWS V14.00,2013-09-14 17:44:00,
2013-09-14 13:49:00,63.4,48.8,29.98,NNW,348,0.0,6.0,59,0.00,,---,0.00,VWS V14.00,2013-09-14 17:49:00,
2013-09-14 13:54:00,63.4,49.3,29.98,NNW,348,2.0,6.0,60,0.00,,---,0.00,VWS V14.00,2013-09-14 17:54:00,
2013-09-14 13:59:00,63.6,49.0,29.98,North,349,0.0,0.0,59,0.00,,---,0.00,VWS V14.00,2013-09-14 17:59:00,
2013-09-14 14:04:00,63.7,48.7,29.98,North,349,0.0,0.0,58,0.00,,---,0.00,VWS V14.00,2013-09-14 18:04:00,
2013-09-14 14:09:00,63.8,48.8,29.98,North,350,2.0,5.0,58,0.00,,---,0.00,VWS V14.00,2013-09-14 18:09:00,
2013-09-14 14:14:00,64.0,50.3,29.98,North,350,1.0,5.0,61,0.00,,---,0.00,VWS V14.00,2013-09-14 18:14:00,
2013-09-14 14:19:00,63.8,48.8,29.98,NNW,332,0.0,5.0,58,0.00,,---,0.00,VWS V14.00,2013-09-14 18:19:00,
2013-09-14 14:24:00,63.8,49.2,29.98,NNW,333,0.0,5.0,59,0.00,,---,0.00,VWS V14.00,2013-09-14 18:24:00,
2013-09-14 14:29:00,64.0,49.4,29.98,NNW,336,0.0,1.0,59,0.00,,---,0.00,VWS V14.00,2013-09-14 18:29:00,
2013-09-14 14:34:00,64.0,48.9,29.98,NNW,336,0.0,2.0,58,0.00,,---,0.00,VWS V14.00,2013-09-14 18:34:00,
2013-09-14 14:39:00,64.0,49.4,29.99,NNW,336,1.0,4.0,59,0.00,,---,0.00,VWS V14.00,2013-09-14 18:39:00,
2013-09-14 14:44:00,64.1,49.0,29.98,NNW,336,5.0,6.0,58,0.00,,---,0.00,VWS V14.00,2013-09-14 18:44:00,
2013-09-14 14:49:00,64.3,50.1,29.99,NNW,336,0.0,6.0,60,0.00,,---,0.00,VWS V14.00,2013-09-14 18:49:00,
2013-09-14 14:54:00,64.5,49.9,29.99,NNW,346,6.0,6.0,59,0.00,,---,0.00,VWS V14.00,2013-09-14 18:54:00,
2013-09-14 14:59:00,64.3,49.2,29.99,North,355,0.0,4.0,58,0.00,,---,0.00,VWS V14.00,2013-09-14 18:59:00,
2013-09-14 15:04:00,64.1,50.0,30.00,NNW,346,2.0,6.0,60,0.00,,---,0.00,VWS V14.00,2013-09-14 19:04:00,
2013-09-14 15:09:00,63.9,49.3,30.00,NNW,346,1.0,6.0,59,0.00,,---,0.00,VWS V14.00,2013-09-14 19:09:00,
2013-09-14 15:14:00,63.7,48.7,29.99,NNW,346,0.0,6.0,58,0.00,,---,0.00,VWS V14.00,2013-09-14 19:14:00,
2013-09-14 15:19:00,63.8,49.7,29.99,NNW,346,4.0,6.0,60,0.00,,---,0.00,VWS V14.00,2013-09-14 19:19:00,
2013-09-14 15:25:00,64.2,49.1,29.99,NNW,346,2.0,6.0,58,0.00,,---,0.00,VWS V14.00,2013-09-14 19:25:00,
2013-09-14 15:30:00,64.2,49.1,29.99,NNW,346,0.0,2.0,58,0.00,,---,0.00,VWS V14.00,2013-09-14 19:30:00,
2013-09-14 15:35:00,64.1,48.6,29.99,NNW,346,0.0,4.0,57,0.00,,---,0.00,VWS V14.00,2013-09-14 19:35:00,
2013-09-14 15:40:00,64.5,49.0,29.99,NNW,346,0.0,4.0,57,0.00,,---,0.00,VWS V14.00,2013-09-14 19:40:00,
2013-09-14 15:45:00,64.6,48.1,29.99,NNW,346,0.0,4.0,55,0.00,,---,0.00,VWS V14.00,2013-09-14 19:45:00,
2013-09-14 15:50:00,64.5,49.0,29.99,NNW,346,5.0,5.0,57,0.00,,---,0.00,VWS V14.00,2013-09-14 19:50:00,
2013-09-14 15:55:00,64.2,49.1,29.99,NNW,346,0.0,7.0,58,0.00,,---,0.00,VWS V14.00,2013-09-14 19:55:00,
2013-09-14 16:00:00,64.1,48.6,29.99,NNW,346,0.0,1.0,57,0.00,,---,0.00,VWS V14.00,2013-09-14 20:00:00,
2013-09-14 16:05:00,64.2,48.7,30.00,NNW,346,0.0,2.0,57,0.00,,---,0.00,VWS V14.00,2013-09-14 20:05:00,
2013-09-14 16:10:00,64.1,48.6,30.00,NNW,346,1.0,4.0,57,0.00,,---,0.00,VWS V14.00,2013-09-14 20:10:00,
2013-09-14 16:15:00,64.0,49.4,30.00,NNW,346,0.0,4.0,59,0.00,,---,0.00,VWS V14.00,2013-09-14 20:15:00,
2013-09-14 16:20:00,64.0,49.8,30.00,NNW,346,0.0,4.0,60,0.00,,---,0.00,VWS V14.00,2013-09-14 20:20:00,
2013-09-14 16:25:00,64.0,48.9,30.00,NNW,345,2.0,6.0,58,0.00,,---,0.00,VWS V14.00,2013-09-14 20:25:00,
2013-09-14 16:30:00,63.8,48.8,30.00,NNW,345,0.0,2.0,58,0.00,,---,0.00,VWS V14.00,2013-09-14 20:30:00,
2013-09-14 16:35:00,63.8,49.2,30.01,North,355,1.0,5.0,59,0.00,,---,0.00,VWS V14.00,2013-09-14 20:35:00,
2013-09-14 16:40:00,63.7,49.6,30.01,NNW,347,2.0,6.0,60,0.00,,---,0.00,VWS V14.00,2013-09-14 20:40:00,
2013-09-14 16:45:00,63.7,49.6,30.01,NNW,347,0.0,6.0,60,0.00,,---,0.00,VWS V14.00,2013-09-14 20:45:00,
2013-09-14 16:50:00,63.6,49.5,30.01,NNW,347,0.0,6.0,60,0.00,,---,0.00,VWS V14.00,2013-09-14 20:50:00,
2013-09-14 16:55:00,63.5,49.8,30.01,NNW,348,0.0,6.0,61,0.00,,---,0.00,VWS V14.00,2013-09-14 20:55:00,
2013-09-14 17:00:00,63.3,48.7,30.01,NNW,348,1.0,4.0,59,0.00,,---,0.00,VWS V14.00,2013-09-14 21:00:00,
2013-09-14 17:05:00,63.2,48.7,30.01,NNW,348,0.0,5.0,59,0.00,,---,0.00,VWS V14.00,2013-09-14 21:05:00,
2013-09-14 17:10:00,63.4,49.3,30.02,NNW,348,2.0,5.0,60,0.00,,---,0.00,VWS V14.00,2013-09-14 21:10:00,
2013-09-14 17:15:00,63.5,48.9,30.02,NNW,347,0.0,5.0,59,0.00,,---,0.00,VWS V14.00,2013-09-14 21:15:00,
2013-09-14 17:20:00,63.5,49.4,30.02,NNW,340,0.0,5.0,60,0.00,,---,0.00,VWS V14.00,2013-09-14 21:20:00,
2013-09-14 17:25:00,63.4,49.3,30.02,NW,325,0.0,7.0,60,0.00,,---,0.00,VWS V14.00,2013-09-14 21:25:00,
2013-09-14 17:30:00,63.4,48.8,30.02,NNW,334,0.0,5.0,59,0.00,,---,0.00,VWS V14.00,2013-09-14 21:30:00,
2013-09-14 17:35:00,63.4,49.3,30.03,NNW,334,2.0,5.0,60,0.00,,---,0.00,VWS V14.00,2013-09-14 21:35:00,
2013-09-14 17:40:00,63.2,48.7,30.03,NNW,345,0.0,5.0,59,0.00,,---,0.00,VWS V14.00,2013-09-14 21:40:00,
2013-09-14 17:45:00,63.1,48.6,30.03,NNW,344,0.0,5.0,59,0.00,,---,0.00,VWS V14.00,2013-09-14 21:45:00,
2013-09-14 17:50:00,62.9,48.8,30.03,NNW,343,5.0,5.0,60,0.00,,---,0.00,VWS V14.00,2013-09-14 21:50:00,
2013-09-14 17:55:00,62.8,48.7,30.03,NNW,343,2.0,5.0,60,0.00,,---,0.00,VWS V14.00,2013-09-14 21:55:00,
2013-09-14 18:00:00,62.6,48.5,30.04,NNW,343,1.0,2.0,60,0.00,,---,0.00,VWS V14.00,2013-09-14 22:00:00,
2013-09-14 18:06:00,62.5,48.4,30.04,NNW,343,0.0,4.0,60,0.00,,---,0.00,VWS V14.00,2013-09-14 22:06:00,
2013-09-14 18:11:00,62.3,48.2,30.04,NNW,343,2.0,4.0,60,0.00,,---,0.00,VWS V14.00,2013-09-14 22:11:00,
2013-09-14 18:16:00,62.1,48.5,30.04,NNW,344,0.0,6.0,61,0.00,,---,0.00,VWS V14.00,2013-09-14 22:16:00,
2013-09-14 18:21:00,61.9,48.3,30.04,NNW,344,4.0,6.0,61,0.00,,---,0.00,VWS V14.00,2013-09-14 22:21:00,
2013-09-14 18:26:00,61.7,48.6,30.04,NNW,345,1.0,6.0,62,0.00,,---,0.00,VWS V14.00,2013-09-14 22:26:00,
2013-09-14 18:31:00,61.5,48.8,30.04,NNW,345,0.0,0.0,63,0.00,,---,0.00,VWS V14.00,2013-09-14 22:31:00,
2013-09-14 18:36:00,61.4,47.8,30.05,NNW,345,0.0,2.0,61,0.00,,---,0.00,VWS V14.00,2013-09-14 22:36:00,
2013-09-14 18:41:00,61.2,48.1,30.05,NNW,345,0.0,2.0,62,0.00,,---,0.00,VWS V14.00,2013-09-14 22:41:00,
2013-09-14 18:46:00,60.9,47.8,30.05,NNW,345,0.0,2.0,62,0.00,,---,0.00,VWS V14.00,2013-09-14 22:46:00,
2013-09-14 18:49:00,60.8,48.1,30.05,NNW,345,0.0,2.0,63,0.00,,---,0.00,VWS V14.00,2013-09-14 22:49:00,
2013-09-14 18:54:00,60.5,47.9,30.05,NNW,345,0.0,2.0,63,0.00,,---,0.00,VWS V14.00,2013-09-14 22:54:00,
2013-09-14 18:59:00,60.3,48.1,30.05,NNW,345,0.0,0.0,64,0.00,,---,0.00,VWS V14.00,2013-09-14 22:59:00,
2013-09-14 19:04:00,60.1,48.3,30.06,NNW,345,0.0,0.0,65,0.00,,---,0.00,VWS V14.00,2013-09-14 23:04:00,
2013-09-14 19:09:00,59.9,48.1,30.05,NNW,345,0.0,0.0,65,0.00,,---,0.00,VWS V14.00,2013-09-14 23:09:00,
2013-09-14 19:14:00,59.6,48.2,30.06,NNW,345,0.0,0.0,66,0.00,,---,0.00,VWS V14.00,2013-09-14 23:14:00,
2013-09-14 19:19:00,59.3,48.4,30.06,NNW,345,0.0,0.0,67,0.00,,---,0.00,VWS V14.00,2013-09-14 23:19:00,
2013-09-14 19:24:00,59.1,47.8,30.06,NNW,345,0.0,0.0,66,0.00,,---,0.00,VWS V14.00,2013-09-14 23:24:00,
2013-09-14 19:29:00,58.8,47.5,30.06,NNW,345,0.0,0.0,66,0.00,,---,0.00,VWS V14.00,2013-09-14 23:29:00,
2013-09-14 19:34:00,58.6,48.1,30.06,NNW,345,0.0,0.0,68,0.00,,---,0.00,VWS V14.00,2013-09-14 23:34:00,
2013-09-14 19:39:00,58.3,48.2,30.06,NNW,345,0.0,0.0,69,0.00,,---,0.00,VWS V14.00,2013-09-14 23:39:00,
2013-09-14 19:45:00,58.0,48.3,30.07,NNW,345,0.0,0.0,70,0.00,,---,0.00,VWS V14.00,2013-09-14 23:45:00,
2013-09-14 19:50:00,57.6,48.3,30.07,NNW,345,0.0,0.0,71,0.00,,---,0.00,VWS V14.00,2013-09-14 23:50:00,
2013-09-14 19:55:00,57.3,48.0,30.07,NNW,345,0.0,0.0,71,0.00,,---,0.00,VWS V14.00,2013-09-14 23:55:00,
2013-09-14 20:00:00,57.0,47.7,30.08,NNW,345,0.0,0.0,71,0.00,,---,0.00,VWS V14.00,2013-09-15 00:00:00,
2013-09-14 20:05:00,56.7,47.4,30.08,NNW,345,0.0,0.0,71,0.00,,---,0.00,VWS V14.00,2013-09-15 00:05:00,
2013-09-14 20:10:00,56.5,48.0,30.08,NNW,345,0.0,0.0,73,0.00,,---,0.00,VWS V14.00,2013-09-15 00:10:00,
2013-09-14 20:15:00,56.2,47.7,30.08,NNW,345,0.0,0.0,73,0.00,,---,0.00,VWS V14.00,2013-09-15 00:15:00,
2013-09-14 20:20:00,56.0,47.5,30.08,NNW,345,0.0,0.0,73,0.00,,---,0.00,VWS V14.00,2013-09-15 00:20:00,
2013-09-14 20:25:00,55.8,47.3,30.09,NNW,345,0.0,0.0,73,0.00,,---,0.00,VWS V14.00,2013-09-15 00:25:00,
2013-09-14 20:30:00,55.5,47.4,30.09,NNW,345,0.0,0.0,74,0.00,,---,0.00,VWS V14.00,2013-09-15 00:30:00,
2013-09-14 20:35:00,55.3,47.5,30.09,NNW,345,0.0,0.0,75,0.00,,---,0.00,VWS V14.00,2013-09-15 00:35:00,
2013-09-14 20:40:00,55.1,47.3,30.09,NNW,345,0.0,0.0,75,0.00,,---,0.00,VWS V14.00,2013-09-15 00:40:00,
2013-09-14 20:45:00,54.9,47.5,30.09,NNW,345,0.0,0.0,76,0.00,,---,0.00,VWS V14.00,2013-09-15 00:45:00,
2013-09-14 20:50:00,54.7,47.3,30.09,NNW,345,0.0,0.0,76,0.00,,---,0.00,VWS V14.00,2013-09-15 00:50:00,
2013-09-14 20:55:00,54.5,47.5,30.09,NNW,345,0.0,0.0,77,0.00,,---,0.00,VWS V14.00,2013-09-15 00:55:00,
2013-09-14 21:00:00,54.4,47.3,30.10,NNW,345,0.0,0.0,77,0.00,,---,0.00,VWS V14.00,2013-09-15 01:00:00,
2013-09-14 21:05:00,54.1,47.4,30.10,NNW,345,0.0,0.0,78,0.00,,---,0.00,VWS V14.00,2013-09-15 01:05:00,
2013-09-14 21:10:00,53.9,47.5,30.10,NNW,345,0.0,0.0,79,0.00,,---,0.00,VWS V14.00,2013-09-15 01:10:00,
2013-09-14 21:15:00,53.7,47.7,30.10,NNW,345,0.0,0.0,80,0.00,,---,0.00,VWS V14.00,2013-09-15 01:15:00,
2013-09-14 21:20:00,53.5,47.5,30.10,NNW,345,0.0,0.0,80,0.00,,---,0.00,VWS V14.00,2013-09-15 01:20:00,
2013-09-14 21:25:00,53.3,47.6,30.10,NNW,345,0.0,0.0,81,0.00,,---,0.00,VWS V14.00,2013-09-15 01:25:00,
2013-09-14 21:30:00,53.2,47.5,30.10,NNW,345,0.0,0.0,81,0.00,,---,0.00,VWS V14.00,2013-09-15 01:30:00,
2013-09-14 21:35:00,53.1,47.4,30.10,NNW,345,0.0,0.0,81,0.00,,---,0.00,VWS V14.00,2013-09-15 01:35:00,
2013-09-14 21:40:00,53.0,47.3,30.10,NNW,345,0.0,0.0,81,0.00,,---,0.00,VWS V14.00,2013-09-15 01:40:00,
2013-09-14 21:45:00,52.8,47.1,30.10,NNW,345,0.0,0.0,81,0.00,,---,0.00,VWS V14.00,2013-09-15 01:45:00,
2013-09-14 21:50:00,52.8,47.1,30.10,NNW,345,0.0,0.0,81,0.00,,---,0.00,VWS V14.00,2013-09-15 01:50:00,
2013-09-14 21:55:00,52.6,47.3,30.10,NNW,345,0.0,0.0,82,0.00,,---,0.00,VWS V14.00,2013-09-15 01:55:00,
2013-09-14 22:00:00,52.5,47.2,30.11,NNW,345,0.0,0.0,82,0.00,,---,0.00,VWS V14.00,2013-09-15 02:00:00,
2013-09-14 22:05:00,52.3,47.0,30.11,NNW,345,0.0,0.0,82,0.00,,---,0.00,VWS V14.00,2013-09-15 02:05:00,
2013-09-14 22:11:00,52.2,46.9,30.11,NNW,345,0.0,0.0,82,0.00,,---,0.00,VWS V14.00,2013-09-15 02:11:00,
2013-09-14 22:16:00,52.1,47.1,30.11,NNW,345,0.0,0.0,83,0.00,,---,0.00,VWS V14.00,2013-09-15 02:16:00,
2013-09-14 22:21:00,51.9,46.9,30.11,NNW,345,0.0,0.0,83,0.00,,---,0.00,VWS V14.00,2013-09-15 02:21:00,
2013-09-14 22:26:00,51.7,46.7,30.11,NNW,345,0.0,0.0,83,0.00,,---,0.00,VWS V14.00,2013-09-15 02:26:00,
2013-09-14 22:31:00,51.6,46.9,30.11,NNW,345,0.0,0.0,84,0.00,,---,0.00,VWS V14.00,2013-09-15 02:31:00,
2013-09-14 22:36:00,51.4,46.7,30.11,NNW,345,0.0,0.0,84,0.00,,---,0.00,VWS V14.00,2013-09-15 02:36:00,
2013-09-14 22:41:00,51.3,47.0,30.11,NNW,345,0.0,0.0,85,0.00,,---,0.00,VWS V14.00,2013-09-15 02:41:00,
2013-09-14 22:46:00,51.1,46.8,30.11,NNW,345,0.0,0.0,85,0.00,,---,0.00,VWS V14.00,2013-09-15 02:46:00,
2013-09-14 22:51:00,50.9,46.6,30.12,NNW,345,0.0,0.0,85,0.00,,---,0.00,VWS V14.00,2013-09-15 02:51:00,
2013-09-14 22:56:00,50.7,46.4,30.11,NNW,345,0.0,0.0,85,0.00,,---,0.00,VWS V14.00,2013-09-15 02:56:00,
2013-09-14 23:01:00,50.5,46.5,30.12,NNW,345,0.0,0.0,86,0.00,,---,0.00,VWS V14.00,2013-09-15 03:01:00,
2013-09-14 23:06:00,50.4,46.4,30.12,NNW,345,0.0,0.0,86,0.00,,---,0.00,VWS V14.00,2013-09-15 03:06:00,
2013-09-14 23:11:00,50.3,46.6,30.11,NNW,345,0.0,0.0,87,0.00,,---,0.00,VWS V14.00,2013-09-15 03:11:00,
2013-09-14 23:16:00,50.1,46.4,30.12,NNW,345,0.0,0.0,87,0.00,,---,0.00,VWS V14.00,2013-09-15 03:16:00,
2013-09-14 23:21:00,49.9,46.2,30.12,NNW,345,0.0,0.0,87,0.00,,---,0.00,VWS V14.00,2013-09-15 03:21:00,
2013-09-14 23:26:00,49.8,46.4,30.12,NNW,345,0.0,0.0,88,0.00,,---,0.00,VWS V14.00,2013-09-15 03:26:00,
2013-09-14 23:31:00,49.7,46.3,30.12,NNW,345,0.0,0.0,88,0.00,,---,0.00,VWS V14.00,2013-09-15 03:31:00,
2013-09-14 23:36:00,49.5,46.1,30.12,NNW,345,0.0,0.0,88,0.00,,---,0.00,VWS V14.00,2013-09-15 03:36:00,
2013-09-14 23:41:00,49.4,46.0,30.12,NNW,345,0.0,0.0,88,0.00,,---,0.00,VWS V14.00,2013-09-15 03:41:00,
2013-09-14 23:46:00,49.3,45.9,30.13,NNW,345,0.0,0.0,88,0.00,,---,0.00,VWS V14.00,2013-09-15 03:46:00,
2013-09-14 23:51:00,49.1,46.0,30.13,NNW,345,0.0,0.0,89,0.00,,---,0.00,VWS V14.00,2013-09-15 03:51:00,
2013-09-14 23:56:00,49.0,45.9,30.14,NNW,345,0.0,0.0,89,0.00,,---,0.00,VWS V14.00,2013-09-15 03:56:00,